User: anonymous
Location: Houston
(29.7630°N, 95.3630°W)
Time: 19:56:35
(UTC-05:00)
Language:

ISS - Orbit

View from above orbital plane
View from above orbital plane
View from above satellite
View from above satellite

Ground track
Ground track

The orbit data is extracted from the following two-line orbital elements,

1 25544U 98067A   14210.71350845  .00003473  00000-0  67716-4 0  7953
2 25544 051.6483 248.7923 0006386 307.6834 155.1572 15.50471381897924
Epoch (UTC): 29 July 2014 17:07:27
Eccentricity: 0.0006386
inclination: 51.6483°
perigee height: 411 km
apogee height: 419 km
right ascension of ascending node: 248.7923°
argument of perigee: 307.6834°
revolutions per day: 15.50471381
mean anomaly at epoch: 155.1572°
orbit number at epoch: 89792

The dashed part of the orbit path shows where the satellite is in the earth's shadow,  

DLR